| time (UTC) | temp C | wind direction | speed KPH | gust KPH | rain 1hr cm | rain 24hr cm | rain mn cm | humidity % | barometer mb |
| 20260906035805 | 22 | 26 | 0.0 | 1.6 | 0.00 | 0.00 | 0.00 | 40 | 1012.9 |
| 20260906034804 | 23 | 355 | 0.0 | 1.6 | 0.00 | 0.00 | 0.00 | 40 | 1012.9 |
| 20260906034305 | 23 | 355 | 0.0 | 1.6 | 0.00 | 0.00 | 0.00 | 39 | 1012.9 |
| 20260906033304 | 23 | 355 | 0.0 | 3.2 | 0.00 | 0.00 | 0.00 | 38 | 1012.9 |
| 20260906032306 | 24 | 7 | 1.6 | 4.8 | 0.00 | 0.00 | 0.00 | 36 | 1012.9 |
| 20260906031804 | 25 | 43 | 3.2 | 4.8 | 0.00 | 0.00 | 0.00 | 35 | 1012.9 |
| 20260906031304 | 25 | 19 | 3.2 | 4.8 | 0.00 | 0.00 | 0.00 | 35 | 1012.9 |
| 20260906025306 | 25 | 346 | 8.0 | 12.9 | 0.00 | 0.00 | 0.00 | 34 | 1012.9 |
| 20260906024804 | 25 | 354 | 3.2 | 11.3 | 0.00 | 0.00 | 0.00 | 34 | 1012.9 |
| 20260906023304 | 26 | 350 | 6.4 | 12.9 | 0.00 | 0.00 | 0.00 | 34 | 1012.9 |
| 20260906014304 | 27 | 309 | 9.7 | 19.3 | 0.00 | 0.00 | 0.00 | 30 | 1012.9 |
| 20260906013305 | 27 | 300 | 8.0 | 16.1 | 0.00 | 0.00 | 0.00 | 30 | 1012.9 |
| 20260906012306 | 28 | 303 | 9.7 | 12.9 | 0.00 | 0.00 | 0.00 | 28 | 1012.9 |
| 20260906011304 | 28 | 307 | 8.0 | 19.3 | 0.00 | 0.00 | 0.00 | 27 | 1012.9 |
| 20260906004804 | 30 | 319 | 12.9 | 19.3 | 0.00 | 0.00 | 0.00 | 26 | 1012.9 |
| 20260906004304 | 30 | 318 | 14.5 | 27.4 | 0.00 | 0.00 | 0.00 | 24 | 1012.9 |
| 20260906003804 | 30 | 314 | 4.8 | 14.5 | 0.00 | 0.00 | 0.00 | 24 | 1012.9 |
| 20260906003304 | 30 | 320 | 8.0 | 12.9 | 0.00 | 0.00 | 0.00 | 24 | 1012.9 |
| 20260906002804 | 31 | 338 | 8.0 | 14.5 | 0.00 | 0.00 | 0.00 | 24 | 1012.9 |
| 20260906000804 | 32 | 190 | 1.6 | 4.8 | 0.00 | 0.00 | 0.00 | 21 | 1012.9 |
| 20260906000304 | 32 | 190 | 1.6 | 4.8 | 0.00 | 0.00 | 0.00 | 21 | 1012.9 |
| 20260905234304 | 32 | 137 | 1.6 | 4.8 | 0.00 | 0.00 | 0.00 | 21 | 1012.9 |
| 20260905232805 | 32 | 97 | 4.8 | 9.7 | 0.00 | 0.00 | 0.00 | 20 | 1012.9 |
| 20260905232306 | 32 | 93 | 8.0 | 12.9 | 0.00 | 0.00 | 0.00 | 22 | 1012.9 |
| 20260905231804 | 33 | 75 | 4.8 | 9.7 | 0.00 | 0.00 | 0.00 | 21 | 1012.9 |
| 20260905231305 | 33 | 134 | 4.8 | 11.3 | 0.00 | 0.00 | 0.00 | 21 | 1012.9 |
| 20260905230304 | 33 | 20 | 1.6 | 4.8 | 0.00 | 0.00 | 0.00 | 21 | 1012.9 |
| 20260905224804 | 33 | 72 | 8.0 | 11.3 | 0.00 | 0.00 | 0.00 | 21 | 1012.9 |
| 20260905224304 | 33 | 36 | 4.8 | 8.0 | 0.00 | 0.00 | 0.00 | 21 | 1012.9 |
| 20260905223804 | 33 | 78 | 4.8 | 16.1 | 0.00 | 0.00 | 0.00 | 20 | 1012.9 |
| 20260905223304 | 33 | 32 | 8.0 | 12.9 | 0.00 | 0.00 | 0.00 | 20 | 1012.9 |
| 20260905221804 | 33 | 55 | 3.2 | 9.7 | 0.00 | 0.00 | 0.00 | 19 | 1012.9 |
| 20260905221304 | 33 | 159 | 1.6 | 4.8 | 0.00 | 0.00 | 0.00 | 21 | 1012.9 |
| 20260905220304 | 33 | 40 | 1.6 | 3.2 | 0.00 | 0.00 | 0.00 | 20 | 1012.9 |
| 20260905215805 | 32 | 40 | 1.6 | 4.8 | 0.00 | 0.00 | 0.00 | 20 | 1012.9 |
| 20260905214804 | 33 | 282 | 4.8 | 14.5 | 0.00 | 0.00 | 0.00 | 21 | 1012.9 |
| 20260905213804 | 33 | 267 | 8.0 | 11.3 | 0.00 | 0.00 | 0.00 | 19 | 1012.9 |
| 20260905212804 | 33 | 35 | 6.4 | 11.3 | 0.00 | 0.00 | 0.00 | 22 | 1012.9 |
| 20260905211305 | 33 | 32 | 9.7 | 20.9 | 0.00 | 0.00 | 0.00 | 20 | 1012.9 |
| 20260905210804 | 33 | 45 | 11.3 | 19.3 | 0.00 | 0.00 | 0.00 | 20 | 1012.9 |
| 20260905210304 | 33 | 88 | 6.4 | 19.3 | 0.00 | 0.00 | 0.00 | 24 | 1012.9 |
| 20260905205306 | 33 | 22 | 11.3 | 24.1 | 0.00 | 0.00 | 0.00 | 20 | 1012.9 |
| 20260905204804 | 33 | 345 | 4.8 | 12.9 | 0.00 | 0.00 | 0.00 | 19 | 1012.9 |
| 20260905203304 | 33 | 30 | 4.8 | 14.5 | 0.00 | 0.00 | 0.00 | 22 | 1012.9 |
| 20260905202805 | 33 | 347 | 12.9 | 20.9 | 0.00 | 0.00 | 0.00 | 20 | 1012.9 |
| 20260905202306 | 33 | 335 | 9.7 | 19.3 | 0.00 | 0.00 | 0.00 | 23 | 1012.9 |
| 20260905201804 | 33 | 28 | 11.3 | 19.3 | 0.00 | 0.00 | 0.00 | 21 | 1012.9 |
| 20260905195805 | 33 | 45 | 9.7 | 19.3 | 0.00 | 0.00 | 0.00 | 22 | 1012.9 |
| 20260905192805 | 32 | 22 | 4.8 | 16.1 | 0.00 | 0.00 | 0.00 | 22 | 1012.9 |
| 20260905192306 | 32 | 65 | 8.0 | 19.3 | 0.00 | 0.00 | 0.00 | 23 | 1012.9 |
| 20260905185804 | 32 | 114 | 11.3 | 19.3 | 0.00 | 0.00 | 0.00 | 25 | 1012.9 |
| 20260905185306 | 31 | 68 | 9.7 | 16.1 | 0.00 | 0.00 | 0.00 | 23 | 1012.9 |
| 20260905184805 | 31 | 19 | 8.0 | 19.3 | 0.00 | 0.00 | 0.00 | 25 | 1012.9 |
| 20260905184304 | 31 | 54 | 11.3 | 25.7 | 0.00 | 0.00 | 0.00 | 24 | 1012.9 |
| 20260905182804 | 31 | 28 | 4.8 | 19.3 | 0.00 | 0.00 | 0.00 | 27 | 1012.9 |
| 20260905182306 | 31 | 64 | 11.3 | 19.3 | 0.00 | 0.00 | 0.00 | 27 | 1012.9 |
| 20260905181804 | 30 | 40 | 8.0 | 19.3 | 0.00 | 0.00 | 0.00 | 26 | 1013.3 |
| 20260905180804 | 31 | 87 | 4.8 | 12.9 | 0.00 | 0.00 | 0.00 | 26 | 1013.3 |
| 20260905175306 | 30 | 25 | 3.2 | 12.9 | 0.00 | 0.00 | 0.00 | 28 | 1013.3 |
| 20260905174804 | 30 | 85 | 9.7 | 16.1 | 0.00 | 0.00 | 0.00 | 27 | 1013.3 |
| 20260905173804 | 29 | 70 | 6.4 | 12.9 | 0.00 | 0.00 | 0.00 | 30 | 1013.3 |
| 20260905173304 | 29 | 50 | 8.0 | 12.9 | 0.00 | 0.00 | 0.00 | 31 | 1013.3 |
| 20260905171804 | 29 | 67 | 8.0 | 11.3 | 0.00 | 0.00 | 0.00 | 32 | 999.9 |
| 20260905170804 | 28 | 48 | 8.0 | 12.9 | 0.00 | 0.00 | 0.00 | 29 | 999.8 |
| 20260905165306 | 28 | 116 | 9.7 | 12.9 | 0.00 | 0.00 | 0.00 | 31 | 999.9 |
| 20260905164305 | 28 | 102 | 8.0 | 14.5 | 0.00 | 0.00 | 0.00 | 32 | 1000.0 |
| 20260905163804 | 27 | 149 | 6.4 | 11.3 | 0.00 | 0.00 | 0.00 | 33 | 999.9 |
| 20260905163305 | 27 | 112 | 9.7 | 14.5 | 0.00 | 0.00 | 0.00 | 34 | 999.9 |
| 20260905162805 | 27 | 89 | 8.0 | 11.3 | 0.00 | 0.00 | 0.00 | 32 | 999.9 |
| 20260905162306 | 27 | 58 | 8.0 | 11.3 | 0.00 | 0.00 | 0.00 | 35 | 999.8 |
| 20260905161804 | 26 | 93 | 3.2 | 9.7 | 0.00 | 0.00 | 0.00 | 35 | 999.9 |
| 20260905161305 | 26 | 136 | 6.4 | 11.3 | 0.00 | 0.00 | 0.00 | 35 | 999.9 |
| 20260905160304 | 26 | 124 | 6.4 | 9.7 | 0.00 | 0.00 | 0.00 | 35 | 999.9 |
| 20260905155805 | 26 | 104 | 4.8 | 11.3 | 0.00 | 0.00 | 0.00 | 35 | 999.9 |
| 20260905154804 | 25 | 96 | 4.8 | 8.0 | 0.00 | 0.00 | 0.00 | 36 | 999.9 |
| 20260905153804 | 25 | 55 | 4.8 | 9.7 | 0.00 | 0.00 | 0.00 | 39 | 1000.0 |
| 20260905152804 | 25 | 82 | 4.8 | 11.3 | 0.00 | 0.00 | 0.00 | 39 | 1000.0 |
| 20260905150804 | 24 | 92 | 8.0 | 9.7 | 0.00 | 0.00 | 0.00 | 41 | 1000.1 |
| 20260905145804 | 24 | 171 | 3.2 | 9.7 | 0.00 | 0.00 | 0.00 | 37 | 1000.1 |
| 20260905145306 | 24 | 163 | 3.2 | 8.0 | 0.00 | 0.00 | 0.00 | 37 | 1000.1 |
| 20260905144804 | 23 | 167 | 1.6 | 8.0 | 0.00 | 0.00 | 0.00 | 39 | 1000.1 |
| 20260905143804 | 23 | 168 | 3.2 | 8.0 | 0.00 | 0.00 | 0.00 | 38 | 1000.2 |
| 20260905141804 | 22 | 161 | 1.6 | 3.2 | 0.00 | 0.00 | 0.00 | 46 | 999.9 |
| 20260905140804 | 21 | 223 | 0.0 | 0.0 | 0.00 | 0.00 | 0.00 | 52 | 999.8 |
| 20260905140304 | 21 | 223 | 0.0 | 1.6 | 0.00 | 0.00 | 0.00 | 49 | 999.7 |
| 20260905135306 | 19 | 223 | 0.0 | 1.6 | 0.00 | 0.00 | 0.00 | 56 | 999.7 |
| 20260905134805 | 18 | 223 | 0.0 | 1.6 | 0.00 | 0.00 | 0.00 | 58 | 999.6 |
| 20260905133304 | 17 | 211 | 0.0 | 0.0 | 0.00 | 0.00 | 0.00 | 64 | 999.6 |
| 20260905132804 | 17 | 211 | 0.0 | 3.2 | 0.00 | 0.00 | 0.00 | 64 | 999.6 |
| 20260905132306 | 16 | 211 | 1.6 | 3.2 | 0.00 | 0.00 | 0.00 | 60 | 999.7 |
| 20260905131804 | 16 | 211 | 1.6 | 3.2 | 0.00 | 0.00 | 0.00 | 61 | 999.6 |
| 20260905130804 | 16 | 211 | 0.0 | 3.2 | 0.00 | 0.00 | 0.00 | 63 | 999.6 |
| 20260905125804 | 15 | 211 | 1.6 | 3.2 | 0.00 | 0.00 | 0.00 | 64 | 999.4 |
| 20260905123804 | 15 | 211 | 0.0 | 0.0 | 0.00 | 0.00 | 0.00 | 64 | 999.2 |
| 20260905122306 | 16 | 211 | 0.0 | 1.6 | 0.00 | 0.00 | 0.00 | 61 | 999.1 |
| 20260905121804 | 16 | 211 | 1.6 | 4.8 | 0.00 | 0.00 | 0.00 | 61 | 999.2 |
| 20260905121304 | 16 | 211 | 1.6 | 4.8 | 0.00 | 0.00 | 0.00 | 62 | 999.1 |
| 20260905120304 | 16 | 204 | 0.0 | 3.2 | 0.00 | 0.00 | 0.00 | 63 | 999.2 |
| 20260905115804 | 16 | 204 | 0.0 | 0.0 | 0.00 | 0.00 | 0.00 | 64 | 999.1 |
| 20260905115306 | 16 | 204 | 0.0 | 1.6 | 0.00 | 0.00 | 0.00 | 64 | 998.9 |
| 20260905114304 | 16 | 204 | 1.6 | 3.2 | 0.00 | 0.00 | 0.00 | 64 | 998.9 |
| 20260905112306 | 15 | 213 | 1.6 | 3.2 | 0.00 | 0.00 | 0.00 | 65 | 998.9 |
| 20260905111304 | 16 | 213 | 0.0 | 0.0 | 0.00 | 0.00 | 0.00 | 63 | 998.9 |
| 20260905110804 | 16 | 213 | 0.0 | 3.2 | 0.00 | 0.00 | 0.00 | 63 | 998.8 |
| 20260905110304 | 16 | 213 | 0.0 | 0.0 | 0.00 | 0.00 | 0.00 | 63 | 998.9 |
| 20260905105804 | 16 | 213 | 0.0 | 1.6 | 0.00 | 0.00 | 0.00 | 62 | 998.8 |
| 20260905104804 | 16 | 213 | 1.6 | 3.2 | 0.00 | 0.00 | 0.00 | 62 | 998.6 |
| 20260905104304 | 16 | 213 | 0.0 | 1.6 | 0.00 | 0.00 | 0.00 | 62 | 998.7 |
| 20260905103304 | 16 | 213 | 1.6 | 3.2 | 0.00 | 0.00 | 0.00 | 61 | 998.8 |
| 20260905102804 | 16 | 213 | 0.0 | 0.0 | 0.00 | 0.00 | 0.00 | 60 | 998.8 |
| 20260905101305 | 16 | 95 | 0.0 | 1.6 | 0.00 | 0.00 | 0.00 | 59 | 998.9 |
| 20260905100804 | 16 | 33 | 0.0 | 0.0 | 0.00 | 0.00 | 0.00 | 60 | 998.8 |
| 20260905100304 | 16 | 33 | 0.0 | 0.0 | 0.00 | 0.00 | 0.00 | 60 | 998.6 |
| 20260905095804 | 16 | 33 | 0.0 | 0.0 | 0.00 | 0.00 | 0.00 | 59 | 998.7 |
| 20260905095305 | 17 | 33 | 0.0 | 0.0 | 0.00 | 0.00 | 0.00 | 58 | 998.7 |
| 20260905094804 | 17 | 33 | 0.0 | 0.0 | 0.00 | 0.00 | 0.00 | 59 | 998.6 |
| 20260905094304 | 17 | 33 | 0.0 | 0.0 | 0.00 | 0.00 | 0.00 | 57 | 998.6 |
| 20260905092804 | 17 | 33 | 1.6 | 3.2 | 0.00 | 0.00 | 0.00 | 54 | 998.4 |
| 20260905092306 | 18 | 128 | 1.6 | 8.0 | 0.00 | 0.00 | 0.00 | 52 | 998.4 |
| 20260905091804 | 18 | 138 | 1.6 | 4.8 | 0.00 | 0.00 | 0.00 | 51 | 998.4 |
| 20260905091304 | 18 | 215 | 0.0 | 1.6 | 0.00 | 0.00 | 0.00 | 51 | 998.4 |
| 20260905085306 | 19 | 215 | 1.6 | 3.2 | 0.00 | 0.00 | 0.00 | 49 | 998.2 |
| 20260905084804 | 19 | 215 | 0.0 | 3.2 | 0.00 | 0.00 | 0.00 | 49 | 998.1 |
| 20260905083304 | 19 | 205 | 1.6 | 3.2 | 0.00 | 0.00 | 0.00 | 48 | 998.0 |
| 20260905082804 | 19 | 201 | 1.6 | 1.6 | 0.00 | 0.00 | 0.00 | 47 | 997.9 |
| 20260905082307 | 20 | 201 | 1.6 | 4.8 | 0.00 | 0.00 | 0.00 | 47 | 997.9 |
| 20260905081804 | 20 | 202 | 3.2 | 4.8 | 0.00 | 0.00 | 0.00 | 46 | 997.9 |
| 20260905081304 | 20 | 180 | 3.2 | 8.0 | 0.00 | 0.00 | 0.00 | 46 | 997.9 |
| 20260905080304 | 20 | 187 | 4.8 | 4.8 | 0.00 | 0.00 | 0.00 | 46 | 997.8 |
| 20260905075804 | 20 | 209 | 3.2 | 4.8 | 0.00 | 0.00 | 0.00 | 46 | 997.8 |
| 20260905075306 | 20 | 203 | 3.2 | 8.0 | 0.00 | 0.00 | 0.00 | 47 | 997.9 |
| 20260905074804 | 20 | 202 | 4.8 | 8.0 | 0.00 | 0.00 | 0.00 | 49 | 997.9 |
| 20260905073304 | 20 | 217 | 3.2 | 4.8 | 0.00 | 0.00 | 0.00 | 51 | 997.9 |
| 20260905072803 | 20 | 197 | 3.2 | 4.8 | 0.00 | 0.00 | 0.00 | 51 | 998.0 |
| 20260905072306 | 20 | 156 | 0.0 | 4.8 | 0.00 | 0.00 | 0.00 | 51 | 997.9 |
| 20260905064804 | 20 | 180 | 1.6 | 3.2 | 0.00 | 0.00 | 0.00 | 50 | 997.8 |
| 20260905063304 | 20 | 180 | 0.0 | 0.0 | 0.00 | 0.00 | 0.00 | 51 | 997.8 |
| 20260905060304 | 21 | 174 | 1.6 | 3.2 | 0.00 | 0.00 | 0.00 | 48 | 997.5 |
| 20260905055306 | 21 | 174 | 0.0 | 0.0 | 0.00 | 0.00 | 0.00 | 46 | 997.5 |
| 20260905054804 | 22 | 174 | 0.0 | 3.2 | 0.00 | 0.00 | 0.00 | 46 | 997.6 |
| 20260905053804 | 22 | 174 | 0.0 | 3.2 | 0.00 | 0.00 | 0.00 | 44 | 997.5 |
| 20260905053304 | 23 | 174 | 3.2 | 4.8 | 0.00 | 0.00 | 0.00 | 43 | 997.5 |
| 20260905052804 | 23 | 152 | 3.2 | 9.7 | 0.00 | 0.00 | 0.00 | 42 | 997.5 |
| 20260905052306 | 23 | 121 | 4.8 | 8.0 | 0.00 | 0.00 | 0.00 | 42 | 997.5 |
| 20260905051304 | 22 | 117 | 3.2 | 8.0 | 0.00 | 0.00 | 0.00 | 42 | 997.6 |
| 20260905050304 | 22 | 157 | 0.0 | 4.8 | 0.00 | 0.00 | 0.00 | 42 | 997.7 |
| 20260905045305 | 22 | 142 | 1.6 | 3.2 | 0.00 | 0.00 | 0.00 | 42 | 997.8 |
| 20260905044804 | 22 | 253 | 0.0 | 1.6 | 0.00 | 0.00 | 0.00 | 41 | 997.7 |
| 20260905044304 | 22 | 253 | 0.0 | 3.2 | 0.00 | 0.00 | 0.00 | 40 | 997.7 |
| 20260905043805 | 23 | 253 | 1.6 | 3.2 | 0.00 | 0.00 | 0.00 | 40 | 997.6 |
| 20260905042804 | 23 | 208 | 0.0 | 0.0 | 0.00 | 0.00 | 0.00 | 38 | 997.6 |
| 20260905041304 | 25 | 208 | 1.6 | 4.8 | 0.00 | 0.00 | 0.00 | 35 | 997.7 |
| 20260905040804 | 25 | 195 | 3.2 | 8.0 | 0.00 | 0.00 | 0.00 | 35 | 997.7 |